Regional Weather Roundup
Issued by NWS

Home | Current Version | Previous Version | Text Only | Print | Product List | Glossary On
Versions: 1 2 3 4 5 6 7 8 9 10 11 12 13 14 15 16 17 18 19 20 21 22 23 24 25 26 27 28 29 30 31 32 33 34 35 36 37 38 39 40 41 42 43 44 45 46 47 48 49 50
334
ASUS44 KLIX 222301
RWRLA
LOUISIANA WEATHER ROUNDUP
NATIONAL WEATHER SERVICE NEW ORLEANS LA
600 PM CDT WED OCT 22 2014

NOTE: "FAIR" INDICATES FEW OR NO CLOUDS BELOW 12,000 FEET WITH NO
      SIGNIFICANT WEATHER AND/OR OBSTRUCTIONS TO VISIBILITY.
      SKY/WX - SKY CONDITION AND SIGNIFICANT WEATHER.
      TMP - AIR TEMPERATURE.    DP   - DEWPOINT TEMPERATURE.
      RH  - RELATIVE HUMIDITY.  PRES - PRESSURE.
      HX  - HEAT INDEX.         WCI  - WIND CHILL INDEX.

*  THESE STATIONS ARE NOT NWS OR FAA STATIONS AND ARE NOT UNDER
   NWS QUALITY CONTROL.

LAZ040-048-061>063-065-066-069-230000-
SOUTHEAST LOUISIANA

CITY           SKY/WX    TMP DP  RH WIND       PRES   REMARKS
N.O. AUDUBON     N/A     76  53  44 MISG        N/A
N.O. INTL ARPT CLEAR     76  51  41 NE7       30.02S
N.O. LAKEFRONT CLEAR     75  57  53 NW3       30.03S
N.O. DOWNTOWN* FAIR      75  50  41 N6        30.03S
SLIDELL        CLEAR     76  57  51 CALM      30.03R
BATON ROUGE    CLEAR     74  52  46 NE6       30.04R
BOOTHVILLE     CLEAR     74  57  55 NE7       30.02S
BELLE CHASSE   CLEAR     73  55  53 NE5       30.02S
BOGALUSA*      FAIR      75  48  38 N5        30.06R
NEW ROADS*     FAIR      73  56  53 N8        30.04S
GONZALES*      FAIR      75  53  46 N3        30.03R
HAMMOND*       NOT AVBL
HOUMA*         CLEAR     75  54  46 N7        30.02S
PORT FOURCHON* CLEAR     75  55  50 NE16      30.05R

$$

LAZ041-044-053-054-230000-
SOUTHWEST LOUISIANA

CITY           SKY/WX    TMP DP  RH WIND       PRES   REMARKS
LAKE CHARLES   CLEAR     77  58  51 NE9       30.03S
LAFAYETTE      CLEAR     76  54  46 NE7       30.04R
PATTERSON      CLEAR     75  59  57 N5        30.05R
SALT POINT       N/A     77  58  51 CALM      30.01R
NEW IBERIA     CLEAR     77  57  50 NE8       30.04R
CHENAULT AIRPK CLEAR     75  57  53 N8        30.04S

$$

LAZ027-028-230000-
CENTRAL LOUISIANA

CITY           SKY/WX    TMP DP  RH WIND       PRES   REMARKS
FORT POLK      CLEAR     74  54  49 NE6       30.06R
ALEXANDRIA INT CLEAR     74  51  44 NE7       30.05S
ALEXANDRIA     CLEAR     73  52  47 NE3       30.06F

$$

LAZ001-002-230000-
NORTHWEST LOUISIANA

CITY           SKY/WX    TMP DP  RH WIND       PRES   REMARKS
SHREVEPORT     CLEAR     74  51  44 E9        30.09R
BARKSDALE AFB  CLEAR     73  51  44 E6        30.09S
DTN SHREVEPORT CLEAR     73  50  44 NE6       30.09S

$$

LAZ014-016-230000-
NORTHEAST LOUISIANA

CITY           SKY/WX    TMP DP  RH WIND       PRES   REMARKS
MONROE         CLEAR     71  51  49 NE7       30.11S
TALLULAH       CLEAR     70  47  43 NE9       30.10S

$$




USA.gov is the U.S. government's official web portal to all federal, state and local government web resources and services.